Time,TemperatureF,DewpointF,PressureIn,WindDirection,WindDirectionDegrees,WindSpeedMPH,WindSpeedGustMPH,Humidity,HourlyPrecipIn,Conditions,Clouds,dailyrainin,SoftwareType,DateUTC
2013-10-02 00:00:00,62.9,62.0,30.02,SSW,200,0.0,0.0,97,0.00,,,0.00,Wunderground v.1.15,2013-10-02 04:00:00,
2013-10-02 00:10:00,62.8,61.9,30.02,SSW,200,0.0,0.0,97,0.00,,,0.00,Wunderground v.1.15,2013-10-02 04:10:00,
2013-10-02 00:20:00,62.7,61.8,30.02,SSW,200,0.0,0.0,97,0.00,,,0.00,Wunderground v.1.15,2013-10-02 04:20:00,
2013-10-02 00:30:00,62.5,61.6,30.03,SSW,200,0.0,0.0,97,0.00,,,0.00,Wunderground v.1.15,2013-10-02 04:30:00,
2013-10-02 00:40:00,62.3,61.4,30.03,SSW,200,0.0,0.0,97,0.00,,,0.00,Wunderground v.1.15,2013-10-02 04:40:00,
2013-10-02 00:50:00,62.3,61.4,30.03,SSW,200,0.0,0.0,97,0.00,,,0.00,Wunderground v.1.15,2013-10-02 04:50:00,
2013-10-02 01:00:00,62.2,61.3,30.03,SSW,200,0.0,0.0,97,0.00,,,0.00,Wunderground v.1.15,2013-10-02 05:00:00,
2013-10-02 01:10:00,62.1,61.2,30.03,SSW,200,0.0,0.0,97,0.00,,,0.00,Wunderground v.1.15,2013-10-02 05:10:00,
2013-10-02 01:20:00,62.2,61.3,30.03,SSW,200,0.0,0.0,97,0.00,,,0.00,Wunderground v.1.15,2013-10-02 05:20:00,
2013-10-02 01:30:00,61.9,61.0,30.03,SSW,200,0.0,0.0,97,0.00,,,0.00,Wunderground v.1.15,2013-10-02 05:30:00,
2013-10-02 01:40:00,61.8,60.9,30.04,SSW,200,0.0,0.0,97,0.00,,,0.00,Wunderground v.1.15,2013-10-02 05:40:00,
2013-10-02 01:50:00,61.6,60.7,30.04,SSW,200,0.0,0.0,97,0.00,,,0.00,Wunderground v.1.15,2013-10-02 05:50:00,
2013-10-02 02:00:00,61.3,60.4,30.04,SSW,200,0.0,0.0,97,0.00,,,0.00,Wunderground v.1.15,2013-10-02 06:00:00,
2013-10-02 02:10:00,61.2,60.3,30.04,SSW,200,0.0,0.0,97,0.00,,,0.00,Wunderground v.1.15,2013-10-02 06:10:00,
2013-10-02 02:20:00,61.2,60.3,30.04,SSW,200,0.0,0.0,97,0.00,,,0.00,Wunderground v.1.15,2013-10-02 06:20:00,
2013-10-02 02:30:00,61.2,60.3,30.04,SSW,200,0.0,0.0,97,0.00,,,0.00,Wunderground v.1.15,2013-10-02 06:30:00,
2013-10-02 02:40:00,61.6,61.0,30.05,SSW,200,0.0,0.0,98,0.00,,,0.00,Wunderground v.1.15,2013-10-02 06:40:00,
2013-10-02 02:50:00,61.8,61.2,30.05,SSW,200,0.0,0.0,98,0.00,,,0.00,Wunderground v.1.15,2013-10-02 06:50:00,
2013-10-02 03:00:00,62.1,61.5,30.05,SSW,200,0.0,0.0,98,0.00,,,0.00,Wunderground v.1.15,2013-10-02 07:00:00,
2013-10-02 03:10:00,62.1,61.5,30.05,SSW,200,0.0,0.0,98,0.00,,,0.00,Wunderground v.1.15,2013-10-02 07:10:00,
2013-10-02 03:20:00,62.2,61.6,30.04,SSW,200,0.0,0.0,98,0.00,,,0.00,Wunderground v.1.15,2013-10-02 07:20:00,
2013-10-02 03:30:00,62.3,61.7,30.04,SSW,200,0.0,0.0,98,0.00,,,0.00,Wunderground v.1.15,2013-10-02 07:30:00,
2013-10-02 03:40:00,62.4,61.8,30.04,SSW,200,0.0,0.0,98,0.00,,,0.00,Wunderground v.1.15,2013-10-02 07:40:00,
2013-10-02 03:50:00,62.5,61.9,30.04,SSW,200,0.0,0.0,98,0.00,,,0.00,Wunderground v.1.15,2013-10-02 07:50:00,
2013-10-02 04:00:00,62.5,61.9,30.04,SSW,200,0.0,0.0,98,0.00,,,0.00,Wunderground v.1.15,2013-10-02 08:00:00,
2013-10-02 04:10:00,62.6,62.0,30.03,SSW,200,0.0,0.0,98,0.00,,,0.00,Wunderground v.1.15,2013-10-02 08:10:00,
2013-10-02 04:20:00,62.6,62.0,30.04,SSW,200,0.0,0.0,98,0.00,,,0.00,Wunderground v.1.15,2013-10-02 08:20:00,
2013-10-02 04:30:00,62.6,62.0,30.04,SSW,200,0.0,0.0,98,0.00,,,0.00,Wunderground v.1.15,2013-10-02 08:30:00,
2013-10-02 04:40:00,62.8,62.2,30.04,SSW,200,0.0,0.0,98,0.00,,,0.00,Wunderground v.1.15,2013-10-02 08:40:00,
2013-10-02 04:50:00,62.9,62.3,30.04,SSW,200,0.0,0.0,98,0.00,,,0.00,Wunderground v.1.15,2013-10-02 08:50:00,
2013-10-02 05:00:00,63.1,62.5,30.04,SSW,200,0.0,0.0,98,0.00,,,0.00,Wunderground v.1.15,2013-10-02 09:00:00,
2013-10-02 05:10:00,63.1,62.5,30.04,SSW,200,0.0,0.0,98,0.00,,,0.00,Wunderground v.1.15,2013-10-02 09:10:00,
2013-10-02 05:20:00,63.2,62.6,30.04,SSW,200,0.0,0.0,98,0.00,,,0.00,Wunderground v.1.15,2013-10-02 09:20:00,
2013-10-02 05:30:00,63.3,62.7,30.04,SSW,200,0.0,0.0,98,0.00,,,0.00,Wunderground v.1.15,2013-10-02 09:30:00,
2013-10-02 05:40:00,63.5,62.9,30.04,SSW,200,0.0,0.0,98,0.00,,,0.00,Wunderground v.1.15,2013-10-02 09:40:00,
2013-10-02 05:50:00,63.6,63.0,30.05,SSW,200,0.0,0.0,98,0.00,,,0.00,Wunderground v.1.15,2013-10-02 09:50:00,
2013-10-02 06:00:00,63.7,63.1,30.05,SSW,200,0.0,0.0,98,0.00,,,0.00,Wunderground v.1.15,2013-10-02 10:00:00,
2013-10-02 06:10:00,63.9,63.3,30.05,SSW,200,0.0,0.0,98,0.00,,,0.00,Wunderground v.1.15,2013-10-02 10:10:00,
2013-10-02 06:20:00,64.3,64.0,30.05,SSW,200,0.0,0.0,99,0.00,,,0.00,Wunderground v.1.15,2013-10-02 10:20:00,
2013-10-02 06:30:00,64.6,64.3,30.05,SSW,200,0.0,0.0,99,0.00,,,0.00,Wunderground v.1.15,2013-10-02 10:30:00,
2013-10-02 06:40:00,65.1,64.8,30.05,SSW,200,0.0,0.0,99,0.00,,,0.00,Wunderground v.1.15,2013-10-02 10:40:00,
2013-10-02 06:50:00,65.5,65.2,30.06,SSW,200,0.0,0.0,99,0.00,,,0.00,Wunderground v.1.15,2013-10-02 10:50:00,
2013-10-02 07:00:00,65.5,65.2,30.06,SSW,200,0.0,0.0,99,0.00,,,0.00,Wunderground v.1.15,2013-10-02 11:00:00,
2013-10-02 07:10:00,65.7,65.4,30.06,SSW,200,0.0,0.0,99,0.00,,,0.00,Wunderground v.1.15,2013-10-02 11:10:00,
2013-10-02 07:20:00,65.8,65.5,30.06,SSW,200,0.0,0.0,99,0.00,,,0.00,Wunderground v.1.15,2013-10-02 11:20:00,
2013-10-02 07:30:00,65.7,65.4,30.06,SSW,200,0.0,0.0,99,0.00,,,0.00,Wunderground v.1.15,2013-10-02 11:30:00,
2013-10-02 07:40:00,65.6,65.3,30.06,SSW,200,0.0,0.0,99,0.00,,,0.00,Wunderground v.1.15,2013-10-02 11:40:00,
2013-10-02 07:50:00,65.8,65.2,30.07,SSW,200,0.0,0.0,98,0.00,,,0.00,Wunderground v.1.15,2013-10-02 11:50:00,
2013-10-02 08:00:00,65.8,65.2,30.07,SSW,200,0.0,0.0,98,0.00,,,0.00,Wunderground v.1.15,2013-10-02 12:00:00,
2013-10-02 08:10:00,66.1,65.8,30.07,SSW,200,0.0,0.0,99,0.00,,,0.00,Wunderground v.1.15,2013-10-02 12:10:00,
2013-10-02 08:20:00,66.3,66.0,30.07,SSW,200,0.0,0.0,99,0.00,,,0.00,Wunderground v.1.15,2013-10-02 12:20:00,
2013-10-02 08:30:00,66.4,66.1,30.08,SSW,200,0.0,0.0,99,0.00,,,0.00,Wunderground v.1.15,2013-10-02 12:30:00,
2013-10-02 08:40:00,66.6,66.3,30.07,SSW,200,0.0,0.0,99,0.00,,,0.00,Wunderground v.1.15,2013-10-02 12:40:00,
2013-10-02 08:50:00,67.0,66.7,30.07,SSW,200,0.0,0.0,99,0.00,,,0.00,Wunderground v.1.15,2013-10-02 12:50:00,
2013-10-02 09:00:00,67.0,66.7,30.08,SSW,200,0.0,0.0,99,0.00,,,0.00,Wunderground v.1.15,2013-10-02 13:00:00,
2013-10-02 09:10:00,66.9,66.6,30.08,SSW,200,0.0,0.0,99,0.00,,,0.00,Wunderground v.1.15,2013-10-02 13:10:00,
2013-10-02 09:20:00,67.2,66.9,30.09,SSW,200,0.0,0.0,99,0.00,,,0.00,Wunderground v.1.15,2013-10-02 13:20:00,
2013-10-02 09:30:00,67.3,67.0,30.08,SSW,200,0.0,0.0,99,0.00,,,0.00,Wunderground v.1.15,2013-10-02 13:30:00,
2013-10-02 09:40:00,67.6,67.3,30.08,SSW,200,0.0,0.0,99,0.00,,,0.00,Wunderground v.1.15,2013-10-02 13:40:00,
2013-10-02 09:50:00,67.8,67.5,30.08,SSW,200,0.0,0.0,99,0.00,,,0.00,Wunderground v.1.15,2013-10-02 13:50:00,
2013-10-02 10:00:00,68.0,67.7,30.08,SSW,200,0.0,0.0,99,0.00,,,0.00,Wunderground v.1.15,2013-10-02 14:00:00,
2013-10-02 10:10:00,68.1,67.8,30.09,SSW,200,0.0,0.0,99,0.00,,,0.00,Wunderground v.1.15,2013-10-02 14:10:00,
2013-10-02 10:20:00,68.2,67.9,30.09,SSW,200,0.0,0.0,99,0.00,,,0.00,Wunderground v.1.15,2013-10-02 14:20:00,
2013-10-02 10:30:00,68.3,68.0,30.09,SSW,200,0.0,0.0,99,0.00,,,0.00,Wunderground v.1.15,2013-10-02 14:30:00,
2013-10-02 10:40:00,68.3,68.0,30.09,SSW,200,0.0,0.0,99,0.00,,,0.00,Wunderground v.1.15,2013-10-02 14:40:00,
2013-10-02 10:50:00,68.5,68.2,30.09,SSW,200,0.0,0.0,99,0.00,,,0.00,Wunderground v.1.15,2013-10-02 14:50:00,
2013-10-02 11:00:00,68.5,68.2,30.09,SSW,200,0.0,0.0,99,0.00,,,0.00,Wunderground v.1.15,2013-10-02 15:00:00,
2013-10-02 12:30:00,71.2,69.4,30.07,SSW,200,0.0,0.0,94,0.00,,,0.00,Wunderground v.1.15,2013-10-02 16:30:00,
2013-10-02 12:40:00,71.6,69.2,30.07,SSW,200,0.0,0.0,92,0.00,,,0.00,Wunderground v.1.15,2013-10-02 16:40:00,
2013-10-02 12:50:00,72.1,69.6,30.07,SSW,200,0.0,0.0,92,0.00,,,0.00,Wunderground v.1.15,2013-10-02 16:50:00,
2013-10-02 13:00:00,72.4,69.3,30.07,SSW,200,0.0,0.0,90,0.00,,,0.00,Wunderground v.1.15,2013-10-02 17:00:00,
2013-10-02 13:10:00,72.7,69.6,30.07,SSW,200,0.0,0.0,90,0.00,,,0.00,Wunderground v.1.15,2013-10-02 17:10:00,
2013-10-02 13:20:00,72.8,69.7,30.06,SSW,200,0.0,1.0,90,0.00,,,0.00,Wunderground v.1.15,2013-10-02 17:20:00,
2013-10-02 13:30:00,73.1,70.0,30.06,SSW,200,0.0,0.0,90,0.00,,,0.00,Wunderground v.1.15,2013-10-02 17:30:00,
2013-10-02 13:40:00,73.7,69.9,30.06,South,180,0.0,0.0,88,0.00,,,0.00,Wunderground v.1.15,2013-10-02 17:40:00,
2013-10-02 13:50:00,73.8,69.7,30.06,South,180,0.0,0.0,87,0.00,,,0.00,Wunderground v.1.15,2013-10-02 17:50:00,
2013-10-02 14:00:00,73.9,69.8,30.06,South,180,0.0,0.0,87,0.00,,,0.00,Wunderground v.1.15,2013-10-02 18:00:00,
2013-10-02 14:10:00,74.3,69.8,30.05,South,180,0.0,0.0,86,0.00,,,0.00,Wunderground v.1.15,2013-10-02 18:10:00,
2013-10-02 14:20:00,74.6,70.1,30.05,South,178,0.0,0.0,86,0.00,,,0.00,Wunderground v.1.15,2013-10-02 18:20:00,
2013-10-02 14:30:00,75.0,70.5,30.05,SSE,150,0.0,0.0,86,0.00,,,0.00,Wunderground v.1.15,2013-10-02 18:30:00,
2013-10-02 14:40:00,75.3,70.5,30.04,SSE,148,0.0,0.0,85,0.00,,,0.00,Wunderground v.1.15,2013-10-02 18:40:00,
2013-10-02 14:50:00,75.5,70.7,30.04,SSE,148,0.0,0.0,85,0.00,,,0.00,Wunderground v.1.15,2013-10-02 18:50:00,
2013-10-02 15:00:00,75.7,70.5,30.04,SE,146,0.0,0.0,84,0.00,,,0.00,Wunderground v.1.15,2013-10-02 19:00:00,
2013-10-02 15:10:00,75.8,70.6,30.04,SE,146,0.0,0.0,84,0.00,,,0.00,Wunderground v.1.15,2013-10-02 19:10:00,
2013-10-02 15:20:00,75.8,71.0,30.03,SE,146,0.0,0.0,85,0.00,,,0.00,Wunderground v.1.15,2013-10-02 19:20:00,
2013-10-02 15:30:00,75.8,70.6,30.03,NNW,348,0.0,0.0,84,0.00,,,0.00,Wunderground v.1.15,2013-10-02 19:30:00,
2013-10-02 15:40:00,76.1,70.6,30.03,NNE,16,0.0,0.0,83,0.00,,,0.00,Wunderground v.1.15,2013-10-02 19:40:00,
2013-10-02 15:50:00,76.6,71.0,30.03,NE,38,0.0,0.0,83,0.00,,,0.00,Wunderground v.1.15,2013-10-02 19:50:00,
2013-10-02 16:00:00,76.7,71.1,30.03,NE,38,0.0,0.0,83,0.00,,,0.00,Wunderground v.1.15,2013-10-02 20:00:00,
2013-10-02 16:10:00,76.5,70.9,30.03,NE,38,0.0,0.0,83,0.00,,,0.00,Wunderground v.1.15,2013-10-02 20:10:00,
2013-10-02 16:20:00,76.3,70.4,30.03,NE,38,0.0,0.0,82,0.00,,,0.00,Wunderground v.1.15,2013-10-02 20:20:00,
2013-10-02 16:30:00,76.4,70.9,30.02,NE,38,0.0,0.0,83,0.00,,,0.00,Wunderground v.1.15,2013-10-02 20:30:00,
2013-10-02 16:40:00,76.5,70.6,30.02,North,360,1.0,1.0,82,0.00,,,0.00,Wunderground v.1.15,2013-10-02 20:40:00,
2013-10-02 16:50:00,76.8,70.9,30.01,North,360,0.0,0.0,82,0.00,,,0.00,Wunderground v.1.15,2013-10-02 20:50:00,
2013-10-02 17:00:00,77.0,70.7,30.01,North,360,0.0,0.0,81,0.00,,,0.00,Wunderground v.1.15,2013-10-02 21:00:00,
2013-10-02 17:10:00,77.3,71.0,30.00,North,360,0.0,0.0,81,0.00,,,0.00,Wunderground v.1.15,2013-10-02 21:10:00,
2013-10-02 17:20:00,77.4,70.4,30.00,North,360,0.0,0.0,79,0.00,,,0.00,Wunderground v.1.15,2013-10-02 21:20:00,
2013-10-02 17:30:00,77.3,70.3,30.00,North,360,0.0,0.0,79,0.00,,,0.00,Wunderground v.1.15,2013-10-02 21:30:00,
2013-10-02 17:40:00,77.4,70.7,30.01,North,360,0.0,0.0,80,0.00,,,0.00,Wunderground v.1.15,2013-10-02 21:40:00,
2013-10-02 17:50:00,77.3,71.0,30.01,North,360,0.0,0.0,81,0.00,,,0.00,Wunderground v.1.15,2013-10-02 21:50:00,
2013-10-02 18:00:00,77.1,71.9,30.02,North,360,0.0,0.0,84,0.00,,,0.00,Wunderground v.1.15,2013-10-02 22:00:00,
2013-10-02 18:10:00,76.5,70.6,30.02,North,355,0.0,0.0,82,0.00,,,0.00,Wunderground v.1.15,2013-10-02 22:10:00,
2013-10-02 18:20:00,76.3,71.1,30.02,North,355,0.0,0.0,84,0.00,,,0.00,Wunderground v.1.15,2013-10-02 22:20:00,
2013-10-02 18:30:00,76.0,71.5,30.02,North,355,0.0,0.0,86,0.00,,,0.00,Wunderground v.1.15,2013-10-02 22:30:00,
2013-10-02 18:40:00,75.5,71.0,30.02,North,355,0.0,0.0,86,0.00,,,0.00,Wunderground v.1.15,2013-10-02 22:40:00,
2013-10-02 18:50:00,75.1,71.0,30.03,North,355,0.0,0.0,87,0.00,,,0.00,Wunderground v.1.15,2013-10-02 22:50:00,
2013-10-02 19:00:00,74.7,71.2,30.02,North,355,0.0,0.0,89,0.00,,,0.00,Wunderground v.1.15,2013-10-02 23:00:00,
2013-10-02 19:10:00,74.4,70.9,30.02,North,355,0.0,0.0,89,0.00,,,0.00,Wunderground v.1.15,2013-10-02 23:10:00,
2013-10-02 19:20:00,74.0,70.9,30.02,North,355,0.0,0.0,90,0.00,,,0.00,Wunderground v.1.15,2013-10-02 23:20:00,
2013-10-02 19:30:00,73.4,70.6,30.02,North,355,0.0,0.0,91,0.00,,,0.00,Wunderground v.1.15,2013-10-02 23:30:00,
2013-10-02 19:40:00,73.1,70.3,30.02,North,355,0.0,0.0,91,0.00,,,0.00,Wunderground v.1.15,2013-10-02 23:40:00,
2013-10-02 19:50:00,72.8,70.3,30.02,North,355,0.0,0.0,92,0.00,,,0.00,Wunderground v.1.15,2013-10-02 23:50:00,
2013-10-02 20:00:00,72.2,69.7,30.02,North,355,0.0,0.0,92,0.00,,,0.00,Wunderground v.1.15,2013-10-03 00:00:00,
2013-10-02 20:10:00,71.7,69.6,30.02,North,355,0.0,0.0,93,0.00,,,0.00,Wunderground v.1.15,2013-10-03 00:10:00,
2013-10-02 20:20:00,71.4,69.6,30.02,North,355,0.0,0.0,94,0.00,,,0.00,Wunderground v.1.15,2013-10-03 00:20:00,
2013-10-02 20:30:00,71.2,69.4,30.02,North,355,0.0,0.0,94,0.00,,,0.00,Wunderground v.1.15,2013-10-03 00:30:00,
2013-10-02 20:40:00,71.0,69.2,30.02,North,355,0.0,0.0,94,0.00,,,0.00,Wunderground v.1.15,2013-10-03 00:40:00,
2013-10-02 20:50:00,70.7,68.9,30.03,North,355,0.0,0.0,94,0.00,,,0.00,Wunderground v.1.15,2013-10-03 00:50:00,
2013-10-02 21:00:00,70.2,68.7,30.03,North,355,0.0,0.0,95,0.00,,,0.00,Wunderground v.1.15,2013-10-03 01:00:00,
2013-10-02 21:10:00,69.9,68.4,30.03,North,355,0.0,0.0,95,0.00,,,0.00,Wunderground v.1.15,2013-10-03 01:10:00,
2013-10-02 21:20:00,69.8,68.6,30.03,North,355,0.0,0.0,96,0.00,,,0.00,Wunderground v.1.15,2013-10-03 01:20:00,
2013-10-02 21:30:00,69.5,68.3,30.03,North,355,0.0,0.0,96,0.00,,,0.00,Wunderground v.1.15,2013-10-03 01:30:00,
2013-10-02 21:39:00,69.2,68.0,30.03,North,355,0.0,0.0,96,0.00,,,0.00,Wunderground v.1.15,2013-10-03 01:39:00,
2013-10-02 21:50:00,69.2,68.3,30.04,North,355,0.0,0.0,97,0.00,,,0.00,Wunderground v.1.15,2013-10-03 01:50:00,
2013-10-02 22:00:00,69.2,68.3,30.03,North,355,0.0,0.0,97,0.00,,,0.00,Wunderground v.1.15,2013-10-03 02:00:00,
2013-10-02 22:10:00,69.3,68.4,30.03,North,355,0.0,0.0,97,0.00,,,0.00,Wunderground v.1.15,2013-10-03 02:10:00,
2013-10-02 22:20:00,69.6,69.0,30.02,SSE,155,0.0,0.0,98,0.00,,,0.00,Wunderground v.1.15,2013-10-03 02:20:00,
2013-10-02 22:30:00,69.9,69.3,30.03,South,188,1.0,2.0,98,0.00,,,0.00,Wunderground v.1.15,2013-10-03 02:30:00,
2013-10-02 22:40:00,70.2,69.3,30.03,South,188,1.0,1.0,97,0.00,,,0.00,Wunderground v.1.15,2013-10-03 02:40:00,
2013-10-02 22:50:00,70.4,69.2,30.02,SW,222,1.0,1.0,96,0.00,,,0.00,Wunderground v.1.15,2013-10-03 02:50:00,
2013-10-02 23:00:00,70.2,69.0,30.03,SSW,212,2.0,2.0,96,0.00,,,0.01,Wunderground v.1.15,2013-10-03 03:00:00,
2013-10-02 23:10:00,69.8,67.7,30.03,SSW,204,2.0,2.0,93,0.00,,,0.01,Wunderground v.1.15,2013-10-03 03:10:00,
2013-10-02 23:20:00,69.4,67.3,30.02,SSW,204,0.0,0.0,93,0.00,,,0.01,Wunderground v.1.15,2013-10-03 03:20:00,
2013-10-02 23:30:00,68.9,66.8,30.02,SSW,204,0.0,0.0,93,0.00,,,0.01,Wunderground v.1.15,2013-10-03 03:30:00,
2013-10-02 23:40:00,68.5,66.7,30.03,SSW,204,0.0,1.0,94,0.00,,,0.01,Wunderground v.1.15,2013-10-03 03:40:00,
2013-10-02 23:50:00,68.1,66.3,30.03,SSW,204,0.0,0.0,94,0.00,,,0.01,Wunderground v.1.15,2013-10-03 03:50:00,